EW6131 Weather Reports


time (UTC)temp
C
wind
direction
speed
KPH
gust
KPH
rain 1hr
cm
rain 24hr
cm
rain mn
cm
humidity
%
barometer
mb
20260503050028 10 67 3.2 17.7 0.00 0.00 0.00 59 1010.2
20260503044539 10 71 1.6 19.3 0.00 0.00 0.00 60 1009.9
20260503043028 10 22 4.8 19.3 0.00 0.00 0.00 62 1009.9
20260503041529 10 0 4.8 19.3 0.00 0.00 0.00 64 1010.3
20260503040030 9 0 3.2 9.7 0.00 0.00 0.00 68 1010.4
20260503034527 9 0 1.6 12.9 0.00 0.00 0.00 74 1010.1
20260503033028 8 13 3.2 14.5 0.00 0.00 0.00 86 1010.2
20260503031529 8 0 0.0 14.5 0.00 0.00 0.00 91 1010.2
20260503030030 8 0 0.0 0.0 0.00 0.00 0.00 90 1010.1
20260503024530 9 0 0.0 0.0 0.00 0.00 0.00 90 1010.4
20260503023030 9 0 0.0 0.0 0.00 0.00 0.00 90 1010.5
20260503021530 9 0 0.0 0.0 0.00 0.00 0.00 89 1010.4
20260503020028 10 0 0.0 0.0 0.00 0.00 0.00 89 1010.4
20260503014530 10 0 0.0 0.0 0.00 0.00 0.00 88 1010.4
20260503013035 10 0 0.0 0.0 0.00 0.00 0.00 88 1010.5
20260503011531 10 0 0.0 0.0 0.00 0.00 0.00 88 1010.5
20260503010028 10 0 0.0 0.0 0.00 0.00 0.00 88 1010.3
20260503004530 10 0 0.0 0.0 0.00 0.00 0.00 87 1010.2
20260503003032 11 0 0.0 0.0 0.00 0.00 0.00 86 1010.1
20260503001530 11 0 0.0 0.0 0.00 0.00 0.00 85 1010.2
20260503000036 11 0 0.0 0.0 0.00 0.00 0.00 84 1010.1
20260502234531 11 0 0.0 0.0 0.00 0.00 0.00 82 1010.0
20260502233030 11 0 0.0 0.0 0.00 0.00 0.00 81 1009.9
20260502231530 12 0 0.0 4.8 0.00 0.00 0.00 82 1010.0
20260502230029 12 0 0.0 6.4 0.00 0.00 0.00 81 1010.0
20260502224528 12 0 0.0 6.4 0.00 0.00 0.00 81 1010.1
20260502223029 12 0 0.0 0.0 0.00 0.00 0.00 82 1010.0
20260502221534 12 0 0.0 4.8 0.00 0.00 0.00 82 1010.1
20260502220028 12 0 0.0 4.8 0.00 0.00 0.00 81 1009.8
20260502214527 12 0 0.0 4.8 0.00 0.00 0.00 82 1010.0
20260502213028 12 0 0.0 3.2 0.00 0.00 0.00 83 1009.8
20260502211549 12 0 0.0 0.0 0.00 0.00 0.00 83 1009.8
20260502210028 12 0 0.0 0.0 0.00 0.00 0.00 82 1010.0
20260502204528 12 0 0.0 1.6 0.00 0.00 0.00 83 1009.8
20260502203028 12 0 0.0 4.8 0.00 0.00 0.00 83 1009.9
20260502201531 12 0 0.0 6.4 0.00 0.00 0.00 83 1009.9
20260502200029 12 173 1.6 8.0 0.00 0.00 0.00 82 1010.1
20260502194528 12 0 1.6 9.7 0.00 0.00 0.00 82 1010.3
20260502193028 13 202 1.6 9.7 0.00 0.00 0.00 81 1010.4
20260502191531 13 157 4.8 12.9 0.00 0.00 0.00 79 1010.6
20260502190032 13 0 1.6 11.3 0.00 0.00 0.00 78 1010.6
20260502184530 13 162 1.6 9.7 0.00 0.00 0.00 79 1010.7
20260502183028 13 0 0.0 3.2 0.00 0.00 0.00 80 1010.9
20260502181529 12 0 0.0 6.4 0.00 0.00 0.00 81 1010.9
20260502163036 11 296 0.0 11.3 0.00 0.00 0.00 89 1011.4
20260502161548 11 0 0.0 4.8 0.00 0.00 0.00 89 1011.5
20260502151529 10 218 1.6 6.4 0.00 0.00 0.00 89 1011.9
20260502123103 11 164 1.6 8.0 0.00 0.00 0.00 86 1012.0
20260502121528 11 160 3.2 9.7 0.00 0.00 0.00 86 1011.7
20260502114531 11 0 0.0 6.4 0.00 0.00 0.00 88 1012.1
20260502113030 10 269 1.6 6.4 0.00 0.00 0.00 88 1012.1
20260502111532 10 257 3.2 8.0 0.00 0.00 0.00 87 1012.2
20260502110039 10 235 3.2 14.5 0.00 0.00 0.00 88 1012.1
20260502104529 10 239 3.2 11.3 0.00 0.00 0.00 88 1011.7
20260502103031 10 238 1.6 8.0 0.00 0.00 0.00 88 1011.7
20260502101530 10 250 1.6 12.9 0.00 0.00 0.00 88 1011.8
20260502091528 10 244 1.6 8.0 0.00 0.00 0.00 87 1011.9
20260502071531 10 237 3.2 11.3 0.00 0.00 0.00 86 1011.9
20260502070030 10 240 3.2 8.0 0.00 0.00 0.00 86 1011.9
20260502064534 10 0 1.6 8.0 0.00 0.00 0.00 86 1012.1
20260502063034 10 228 1.6 8.0 0.00 0.00 0.00 86 1012.4
20260502061531 10 209 1.6 6.4 0.00 0.00 0.00 86 1012.3
20260502060029 10 244 3.2 11.3 0.00 0.00 0.00 85 1012.4
20260502054530 10 0 3.2 14.5 0.00 0.00 0.00 85 1012.3
20260502053028 10 228 1.6 8.0 0.00 0.00 0.00 84 1012.4
20260502051532 10 254 3.2 9.7 0.00 0.00 0.00 84 1012.7